This demonstration page uses our WeatherBlox Daily Observations layout. Learn more.

Hourly Observations for June 5, 2015

Temp ( °F °C ) Dew Point ( °F °C ) Humidity (%) Winds ( mph kmh ) Pressure ( in mb ) Visibility ( mi km ) Precip ( " mm )
12:15 am 00:15 Mostly Cloudy with Thunderstorms 63 17 61 16 94 94 SE 20 31 29.97 1015 4 6.437376 0.22 5.588
12:35 am 00:35 Cloudy with Light Rain 64 18 61 16 88 88 E 16 26 30 1016 10 16.09344 0.24 6.096
12:55 am 00:55 Cloudy with Light Drizzle 63 17 61 16 94 94 E 13 20 30 1016 10 16.09344 0.25 6.35
1:15 am 01:15 Cloudy with Light Rain 63 17 61 16 94 94 ESE 10 17 30 1016 10 16.09344 0 0
1:35 am 01:35 Cloudy with Light Thunderstorms 63 17 61 16 94 94 E 9 15 30.03 1017 10 16.09344 0.01 0.254
1:55 am 01:55 Cloudy 63 17 61 16 94 94 ESE 17 28 30 1016 10 16.09344 0.03 0.762
2:15 am 02:15 Cloudy with Light Rain 63 17 61 16 94 94 SE 16 26 30 1016 10 16.09344 0.05 1.27
2:35 am 02:35 Cloudy 63 17 61 16 94 94 ESE 12 19 30.03 1017 10 16.09344 0.07 1.778
2:55 am 02:55 Cloudy with Light Rain 63 17 61 16 94 94 E 17 28 30 1016 10 16.09344 0.09 2.286
3:15 am 03:15 Cloudy with Light Rain 61 16 59 15 94 94 ESE 24 39 29.94 1014 10 16.09344 0.01 0.254
3:35 am 03:35 Cloudy 61 16 59 15 94 94 E 14 22 30 1016 10 16.09344 0.01 0.254
3:55 am 03:55 Cloudy 61 16 59 15 94 94 SE 15 24 30.06 1018 10 16.09344 0.01 0.254
4:15 am 04:15 Cloudy 61 16 59 15 94 94 SE 13 20 30.06 1018 10 16.09344 0 0
4:35 am 04:35 Cloudy 61 16 59 15 94 94 SE 13 20 30.06 1018 10 16.09344 0 0
4:55 am 04:55 Cloudy 61 16 59 15 94 94 SSE 12 19 30.03 1017 10 16.09344 0 0
5:15 am 05:15 Cloudy 61 16 59 15 94 94 SSE 14 22 30.03 1017 10 16.09344 0 0
5:35 am 05:35 Cloudy 61 16 59 15 94 94 S 15 24 30.03 1017 10 16.09344 0 0
5:55 am 05:55 Cloudy 61 16 59 15 94 94 S 10 17 30.03 1017 10 16.09344 0 0
6:15 am 06:15 Cloudy 61 16 59 15 94 94 S 7 11 30.03 1017 10 16.09344 0 0
6:35 am 06:35 Mostly Cloudy 61 16 59 15 94 94 Calm 30.03 1017 10 16.09344 0 0
6:55 am 06:55 Partly Cloudy 61 16 59 15 94 94 Calm 30.03 1017 10 16.09344 0 0
7:15 am 07:15 Sunny 61 16 59 15 94 94 W 3 6 30.06 1018 10 16.09344 0 0
7:35 am 07:35 Sunny 61 16 59 15 94 94 N 6 9 30.06 1018 10 16.09344 0 0
7:55 am 07:55 Sunny 61 16 59 15 94 94 WNW 7 11 30.09 1019 10 16.09344 0 0
8:15 am 08:15 Partly Cloudy 63 17 59 15 88 88 WNW 3 6 30.09 1019 10 16.09344 0 0
8:35 am 08:35 Partly Cloudy 63 17 59 15 88 88 WNW 3 6 30.09 1019 10 16.09344 0 0
8:55 am 08:55 Mostly Cloudy 63 17 61 16 94 94 Calm 30.09 1019 10 16.09344 0 0
9:15 am 09:15 Partly Cloudy 63 17 59 15 88 88 Calm 30.09 1019 10 16.09344 0 0
9:35 am 09:35 Sunny 63 17 59 15 88 88 E 5 7 30.09 1019 10 16.09344 0 0
9:55 am 09:55 Partly Cloudy 63 17 61 16 94 94 E 9 15 30.09 1019 10 16.09344 0 0
10:15 am 10:15 Cloudy 63 17 61 16 94 94 NNE 15 24 30.03 1017 10 16.09344 0 0
10:35 am 10:35 Mostly Cloudy 64 18 61 16 88 88 NE 12 19 30.06 1018 10 16.09344 0 0
10:55 am 10:55 Cloudy 64 18 61 16 88 88 ENE 3 6 30.06 1018 10 16.09344 0 0
11:15 am 11:15 Cloudy 64 18 61 16 88 88 NE 5 7 30.06 1018 10 16.09344 0 0
11:35 am 11:35 Partly Cloudy 66 19 61 16 83 83 ENE 8 13 30.06 1018 10 16.09344 0 0
11:55 am 11:55 Sunny 66 19 61 16 83 83 ENE 10 17 30.06 1018 10 16.09344 0 0
12:15 pm 12:15 Mostly Cloudy 66 19 61 16 83 83 ENE 9 15 30.06 1018 10 16.09344 0 0
12:35 pm 12:35 Mostly Cloudy 66 19 61 16 83 83 E 9 15 30.06 1018 10 16.09344 0 0
12:55 pm 12:55 Mostly Cloudy 68 20 61 16 78 78 ENE 12 19 30.03 1017 10 16.09344 0 0
1:15 pm 13:15 Mostly Cloudy 68 20 61 16 78 78 ENE 6 9 30.03 1017 10 16.09344 0 0
1:35 pm 13:35 Mostly Cloudy 70 21 63 17 78 78 ENE 6 9 30.03 1017 10 16.09344 0 0
1:55 pm 13:55 Mostly Cloudy 70 21 63 17 78 78 NE 3 6 30.03 1017 10 16.09344 0 0
2:15 pm 14:15 Cloudy 70 21 63 17 78 78 Calm 30.03 1017 10 16.09344 0 0
2:35 pm 14:35 Mostly Cloudy 72 22 63 17 73 73 NE 5 7 30.03 1017 10 16.09344 0 0
2:55 pm 14:55 Partly Cloudy 72 22 63 17 73 73 NNE 7 11 30.03 1017 10 16.09344 0 0
3:15 pm 15:15 Mostly Cloudy 73 23 63 17 69 69 Calm 30.03 1017 10 16.09344 0 0
3:35 pm 15:35 Partly Cloudy 73 23 63 17 69 69 E 7 11 30.03 1017 10 16.09344 0 0
3:55 pm 15:55 Partly Cloudy 73 23 61 16 65 65 ENE 5 7 30.03 1017 10 16.09344 0 0
4:15 pm 16:15 Sunny 75 24 61 16 61 61 NE 6 9 30.03 1017 10 16.09344 0 0
4:35 pm 16:35 Partly Cloudy 75 24 63 17 65 65 ENE 8 13 29.97 1015 10 16.09344 0 0
4:55 pm 16:55 Sunny 75 24 63 17 65 65 NE 9 15 29.97 1015 10 16.09344 0 0
5:15 pm 17:15 Sunny 75 24 63 17 65 65 ENE 13 20 29.94 1014 10 16.09344 0 0
5:35 pm 17:35 Sunny 77 25 63 17 61 61 NE 12 19 29.94 1014 10 16.09344 0 0
5:55 pm 17:55 Sunny 75 24 61 16 61 61 NE 14 22 29.94 1014 10 16.09344 0 0
6:15 pm 18:15 Sunny 77 25 63 17 61 61 ENE 13 20 29.94 1014 10 16.09344 0 0
6:35 pm 18:35 Sunny 75 24 63 17 65 65 ENE 14 22 29.91 1013 10 16.09344 0 0
6:55 pm 18:55 Sunny 75 24 63 17 65 65 E 13 20 29.94 1014 10 16.09344 0 0
7:15 pm 19:15 Sunny 75 24 63 17 65 65 E 14 22 29.94 1014 10 16.09344 0 0
7:35 pm 19:35 Partly Cloudy 73 23 63 17 69 69 E 13 20 29.97 1015 10 16.09344 0 0
7:55 pm 19:55 Sunny 73 23 63 17 69 69 E 12 19 29.97 1015 10 16.09344 0 0
8:15 pm 20:15 Sunny 73 23 63 17 69 69 E 12 19 29.94 1014 10 16.09344 0 0
8:35 pm 20:35 Mostly Cloudy 72 22 63 17 73 73 E 12 19 29.97 1015 10 16.09344 0 0
8:55 pm 20:55 Mostly Cloudy 72 22 63 17 73 73 E 10 17 29.97 1015 10 16.09344 0 0
9:15 pm 21:15 Mostly Cloudy 70 21 63 17 78 78 E 8 13 29.97 1015 10 16.09344 0 0
9:35 pm 21:35 Mostly Cloudy 70 21 63 17 78 78 E 9 15 29.97 1015 10 16.09344 0 0
9:55 pm 21:55 Mostly Cloudy 70 21 64 18 83 83 E 8 13 29.97 1015 10 16.09344 0 0
10:15 pm 22:15 Cloudy 70 21 63 17 78 78 ESE 9 15 29.97 1015 10 16.09344 0 0
10:35 pm 22:35 Cloudy 70 21 63 17 78 78 ESE 8 13 30 1016 10 16.09344 0 0
10:55 pm 22:55 Cloudy 70 21 63 17 78 78 SE 3 6 30 1016 10 16.09344 0 0
11:15 pm 23:15 Cloudy with Light Rain 70 21 63 17 78 78 Calm 29.97 1015 10 16.09344 0 0
11:35 pm 23:35 Cloudy with Nearby Thunderstorms 70 21 63 17 78 78 Calm 29.97 1015 10 16.09344 0 0
11:55 pm 23:55 Cloudy with Nearby Thunderstorms 70 21 64 18 83 83 ENE 3 6 29.97 1015 10 16.09344 0 0

Powered by AerisWeather